Theta_e
331 330 331 331 332 333 332 332 332 333 333 334 334 335 335 334 333 332 332 332 333 332 332 331 331 330 329 330 329 328 328 328 328 328 328 326 323 324 326 326 322 320 320 320 320 319 318 318 319 320 320 320 319 319 319 319 319 320 321 322 322 322 322 322 324 326 328 330 332 332 331 332 333 333 333 332 332 331 331 332 332 331 332 332 333
333 333 331 331 332 332 332 332 333 333 333 334 335 335 335 334 333 333 332 333 332 332 332 331 331 331 330 331 330 329 329 328 328 329 329 327 325 324 326 326 323 321 320 319 319 320 319 318 318 319 319 319 319 318 318 318 319 319 320 322 321 321 320 320 322 324 326 328 331 334 333 331 330 330 332 332 331 330 330 330 330 330 330 331 331
337 336 332 332 332 332 332 333 333 333 333 334 334 334 334 334 333 333 333 333 333 331 331 331 331 331 330 331 331 330 329 328 329 330 329 328 328 326 326 327 326 323 321 320 319 320 319 319 318 318 318 318 318 318 318 318 318 319 319 321 320 320 320 319 320 322 323 327 331 335 335 336 335 329 328 332 331 330 330 329 329 328 329 329 330
338 337 335 332 332 333 333 333 333 333 334 334 334 334 334 333 334 334 333 333 333 332 331 331 331 331 331 332 331 330 330 329 331 330 328 328 329 328 327 326 326 325 323 321 320 320 320 320 319 318 318 318 318 317 317 317 317 318 319 320 320 320 320 319 319 320 321 326 331 332 332 335 338 330 326 331 332 331 330 329 329 328 328 328 328
337 339 337 332 331 333 333 333 333 333 334 334 334 334 333 333 333 333 333 333 333 332 331 331 332 332 332 332 330 330 330 330 331 330 329 329 328 329 328 326 326 326 324 321 321 321 320 320 319 319 318 318 317 317 317 317 317 317 317 318 319 319 319 319 319 319 319 322 325 329 331 332 333 328 326 329 329 329 330 328 329 328 327 327 327
336 338 337 333 331 332 333 333 334 334 334 334 335 334 334 333 333 333 333 333 333 332 331 331 331 332 333 332 330 330 330 329 330 330 330 330 329 329 329 328 326 326 326 322 321 322 321 320 319 319 319 318 317 317 317 317 317 317 316 317 317 318 319 319 318 318 319 319 320 324 326 326 326 325 327 329 328 329 329 329 328 328 327 327 326
336 336 335 333 331 332 333 334 334 334 334 335 335 334 334 334 334 334 333 333 333 332 332 332 331 332 333 332 332 332 331 330 330 330 331 330 330 329 330 329 326 326 327 323 321 322 321 321 320 319 319 318 318 318 318 317 317 318 317 317 317 318 319 318 318 318 319 319 319 320 320 320 321 322 325 328 329 330 326 324 325 326 327 328 326
337 337 338 334 331 332 334 334 334 334 335 335 335 334 334 334 334 334 333 333 333 333 333 333 332 333 334 333 333 332 331 330 330 330 330 330 331 330 330 329 328 327 327 325 323 322 322 322 321 320 319 319 318 318 318 318 317 318 318 318 318 318 318 318 317 318 319 319 319 319 318 318 319 320 321 322 326 329 326 323 322 322 323 326 328
336 338 340 335 331 333 334 334 334 334 335 335 335 335 335 335 334 334 333 333 333 333 334 334 334 334 334 333 332 332 331 331 330 330 330 330 330 330 330 330 329 329 328 327 324 323 322 322 321 321 320 319 319 318 318 318 318 318 318 319 319 318 318 317 317 318 319 319 319 319 319 318 317 318 319 319 322 325 326 326 323 320 320 322 325
336 337 335 332 333 334 334 335 335 335 335 335 335 335 334 334 334 334 334 333 333 333 334 334 334 335 334 334 334 333 333 331 331 331 331 331 330 330 330 330 329 329 329 327 325 323 323 323 322 321 320 319 319 318 318 318 319 318 318 319 319 319 318 318 318 318 318 318 318 319 319 319 317 317 318 319 320 320 322 324 321 320 321 320 319
337 337 334 330 332 334 334 335 335 335 335 335 335 335 334 334 334 335 334 333 333 333 334 334 335 335 334 335 335 334 333 332 332 332 331 331 330 330 330 330 330 329 329 328 327 326 326 324 322 321 321 320 319 319 319 319 319 319 318 319 318 319 319 319 319 318 318 317 318 319 319 319 317 318 318 318 320 320 322 324 320 318 319 319 318
337 339 337 333 333 333 333 335 335 334 335 334 335 335 334 334 334 335 334 334 334 334 335 336 336 335 335 336 336 335 334 334 333 333 332 331 331 330 330 330 330 330 329 329 328 327 327 326 323 322 322 321 320 320 319 318 319 319 319 319 319 319 319 319 319 318 318 317 317 318 319 320 318 317 317 317 319 320 321 323 320 318 319 319 318
337 338 338 337 335 332 333 334 334 334 335 334 335 335 334 335 335 335 335 335 336 335 336 337 337 337 337 337 336 336 336 335 334 334 332 332 331 331 330 330 330 330 330 330 329 328 328 327 326 324 324 322 321 320 319 319 318 318 319 319 319 319 319 319 319 319 320 319 318 318 318 319 319 318 317 317 318 318 319 322 320 318 318 318 318
337 336 337 337 334 331 332 334 333 334 335 334 335 334 334 335 334 335 335 335 336 336 337 337 337 337 336 336 336 335 335 334 333 333 333 332 332 332 332 331 331 331 330 330 330 330 329 328 328 326 325 324 323 321 320 320 319 318 319 319 319 320 320 320 320 320 320 320 320 319 318 319 318 319 319 317 317 317 318 320 319 319 318 316 317
336 336 338 336 331 331 333 333 333 334 334 334 335 334 334 334 334 334 335 335 335 336 337 337 335 334 334 334 334 334 334 333 333 333 332 332 332 332 332 331 332 331 331 331 331 331 330 329 329 328 327 326 325 324 322 321 321 319 319 319 320 320 320 320 320 320 320 320 321 320 319 319 317 318 319 318 318 318 317 317 318 321 322 321 322
336 337 341 338 331 332 333 333 333 333 334 334 334 334 334 334 334 334 334 334 334 335 335 334 334 333 333 334 334 333 333 332 332 332 332 332 332 332 332 331 331 330 331 331 331 331 331 331 330 329 329 328 327 327 325 323 322 321 321 320 320 320 320 321 320 321 320 320 320 320 320 320 318 319 319 319 319 318 318 317 317 319 322 324 327
337 339 342 339 333 332 333 333 334 334 334 333 333 333 334 334 334 333 333 334 334 334 333 333 333 333 333 333 333 333 333 332 332 332 332 332 332 332 332 332 331 330 331 331 331 331 331 331 331 330 330 329 328 327 326 326 324 322 322 321 321 320 320 320 320 320 320 319 320 320 320 320 319 320 319 319 319 319 319 318 317 317 319 322 325
338 339 339 336 333 332 333 333 334 334 334 333 332 332 332 332 332 332 332 333 333 333 333 333 333 333 333 332 332 332 332 331 332 332 332 332 332 332 331 331 332 331 331 331 331 332 332 331 331 331 331 330 329 328 328 327 326 325 324 322 322 321 320 320 320 320 320 320 320 320 321 320 320 320 320 319 319 319 319 319 318 317 318 320 322
338 337 338 336 332 332 334 334 334 334 333 332 330 330 331 330 330 330 331 332 331 332 333 333 333 333 332 332 332 332 332 331 332 332 331 331 331 331 331 331 331 331 331 331 331 331 331 331 331 331 331 330 330 329 329 328 328 327 326 325 324 322 321 321 321 320 320 320 320 320 320 320 320 320 320 320 320 320 319 319 318 317 317 318 319
336 334 337 336 332 333 335 333 333 333 331 331 330 330 331 331 331 331 331 331 331 332 332 332 332 331 331 332 331 331 331 331 331 331 331 331 331 331 331 331 331 331 331 330 330 330 330 331 331 331 331 330 330 330 329 329 329 329 328 327 327 325 323 322 322 321 320 320 320 320 320 320 320 320 320 320 320 320 319 319 319 318 317 318 317
334 333 336 334 330 332 335 334 332 331 331 331 332 331 331 331 330 330 331 331 330 330 330 330 330 330 330 331 331 331 331 331 331 331 331 331 331 331 331 331 331 331 331 331 331 331 331 330 330 331 330 330 330 330 330 330 329 329 329 328 328 327 325 325 323 322 322 321 321 321 321 321 320 320 320 320 319 319 319 319 319 319 318 318 317
334 334 335 332 329 330 333 332 332 331 331 332 332 330 329 329 329 329 330 330 329 329 330 330 330 330 331 331 331 331 331 331 331 331 331 331 331 332 331 332 332 332 331 331 331 331 331 331 331 331 331 330 330 330 329 330 329 329 329 329 329 328 327 326 325 324 324 323 322 321 321 321 320 320 320 320 320 319 319 319 319 319 319 319 318
334 334 333 329 328 331 332 331 332 332 332 332 331 329 329 330 330 329 330 330 330 330 330 330 331 331 331 331 331 331 331 331 331 331 331 331 331 332 332 332 332 332 331 331 330 330 331 331 331 331 331 330 330 329 329 329 329 329 329 329 329 328 328 327 327 326 326 325 324 322 321 321 320 321 320 320 320 319 320 320 319 319 320 320 319
334 334 332 328 327 329 330 330 331 332 332 332 331 329 329 330 330 330 330 330 330 331 330 331 331 332 332 331 331 332 331 331 331 331 332 332 332 332 332 332 332 332 332 331 330 330 330 331 331 331 331 330 330 329 329 329 329 328 328 328 328 329 328 328 327 327 326 326 325 324 323 322 321 320 320 320 320 320 320 320 320 320 320 320 319
334 334 334 332 329 328 328 329 330 331 331 331 330 329 329 329 330 330 330 330 330 330 330 330 331 331 331 331 331 331 331 331 332 331 332 332 332 332 332 333 333 332 332 332 331 331 330 330 331 330 330 331 330 330 329 329 329 329 328 328 328 328 328 328 328 327 327 327 326 325 325 324 322 322 321 321 320 320 320 320 321 320 320 319 319
334 335 335 335 330 327 326 327 329 329 329 331 330 329 328 328 329 330 330 330 330 329 329 329 330 330 330 331 331 331 331 331 331 331 331 332 332 333 333 333 333 333 333 332 331 330 330 331 331 331 331 331 330 330 330 329 329 329 328 328 328 328 328 328 328 327 327 327 326 326 325 324 323 323 322 322 321 320 320 320 320 321 320 320 320
334 334 334 335 333 328 324 324 327 328 328 330 330 329 328 327 328 328 328 329 329 329 329 328 329 329 329 329 329 330 331 330 331 332 332 332 332 332 332 331 331 330 329 329 328 328 329 329 330 330 330 330 330 329 329 329 328 328 328 328 328 328 327 327 327 327 326 327 326 326 325 324 323 323 322 322 321 321 321 321 321 321 321 320 320
333 333 333 335 335 333 326 322 325 326 327 328 328 327 327 327 328 327 327 328 328 328 329 329 329 328 327 328 329 330 331 331 331 331 329 328 327 326 326 325 324 324 324 325 326 325 326 327 328 328 329 329 330 329 329 329 328 328 328 328 327 327 327 326 327 326 326 326 326 326 326 325 324 322 322 322 322 322 322 321 321 321 321 321 320
332 332 332 333 335 335 328 323 324 325 326 327 327 326 327 327 327 327 327 328 328 328 329 328 328 328 328 329 329 329 329 328 327 325 323 322 321 321 321 320 320 323 324 325 325 324 324 325 326 327 328 329 329 329 328 328 328 328 327 327 327 327 326 326 326 326 325 326 326 326 326 325 324 323 323 324 324 324 323 322 322 321 321 321 320
332 332 332 332 333 332 326 323 324 324 325 326 326 326 327 327 327 328 327 328 328 328 328 328 328 329 329 328 328 327 326 324 322 320 319 319 320 321 319 319 322 324 325 324 322 322 323 324 325 326 328 328 327 327 327 326 327 327 327 327 327 326 326 326 325 325 325 325 325 325 325 324 324 324 324 324 324 325 325 324 324 323 323 322 321
331 331 331 330 330 330 325 323 324 324 324 326 326 326 326 326 327 327 328 328 328 328 329 328 328 328 326 325 325 324 323 322 320 318 320 321 322 323 321 320 322 324 324 323 321 322 322 322 324 326 326 326 326 325 325 324 324 324 324 325 325 325 325 325 325 324 324 325 325 324 324 324 323 324 324 324 324 324 324 324 324 324 324 324 323
330 330 329 328 329 331 327 323 323 324 325 325 325 326 325 326 326 327 327 328 329 329 328 327 325 323 323 323 323 323 322 321 320 319 321 322 323 324 322 321 321 323 323 322 321 321 320 319 324 327 326 324 323 320 319 318 318 318 319 322 324 324 325 324 325 324 324 324 324 324 324 324 324 324 324 324 324 324 324 323 323 323 323 323 323
331 329 329 329 327 326 324 323 324 325 325 325 326 326 326 327 327 328 329 329 328 327 325 324 322 321 322 322 322 323 322 322 321 320 321 322 323 323 321 319 320 320 320 318 318 318 318 319 325 327 324 320 317 315 315 314 314 314 314 316 319 320 320 320 319 319 319 321 322 322 322 322 323 323 323 323 323 323 323 323 323 323 323 323 323
332 330 330 329 326 322 322 324 325 325 326 327 327 327 327 327 328 327 328 327 325 325 324 323 322 321 321 321 321 322 322 322 321 319 319 320 320 319 318 317 317 316 315 316 317 318 319 323 327 325 320 316 314 314 314 313 313 312 312 312 313 313 313 313 312 312 313 315 317 318 320 321 322 322 322 323 322 322 321 321 321 322 322 322 323
331 332 332 328 325 323 323 325 326 326 327 327 327 327 327 326 327 326 326 325 324 324 324 323 323 322 321 320 320 321 321 321 319 318 317 316 316 316 316 315 313 313 313 315 318 320 323 326 326 323 318 315 313 312 311 309 307 306 307 307 308 308 308 308 308 309 309 310 312 314 316 318 320 321 320 320 319 317 317 317 317 318 318 318 319
333 332 331 327 325 325 324 326 327 327 327 326 326 327 326 325 325 325 325 325 324 324 324 324 323 322 320 319 319 319 320 319 318 316 314 314 314 314 314 313 312 312 312 312 315 319 324 326 323 320 317 314 311 309 308 306 304 302 302 303 303 303 303 303 303 304 304 306 308 311 312 315 318 320 319 316 312 310 309 310 312 313 314 314 314
334 329 328 328 327 327 326 326 327 326 326 326 326 326 325 324 324 324 324 324 324 324 323 322 321 320 318 317 317 318 318 317 316 315 313 313 313 313 312 312 311 310 310 310 310 313 321 324 321 317 316 312 309 308 307 305 304 303 302 302 302 302 302 302 302 302 302 303 305 308 310 311 313 315 314 311 309 308 307 307 308 309 310 310 310
333 330 330 330 329 329 328 327 327 326 325 325 325 324 324 323 323 323 322 322 321 321 320 319 318 317 316 315 316 317 316 314 315 314 313 313 313 312 311 310 309 308 308 309 308 308 315 320 319 316 315 312 309 307 307 305 304 304 303 303 302 302 302 302 303 303 303 303 303 305 306 307 307 308 308 307 307 307 307 307 307 307 308 307 306
333 332 331 330 329 329 328 327 326 325 324 324 324 324 323 322 321 321 320 319 318 318 317 317 316 315 314 315 316 316 315 313 314 314 313 313 312 312 311 310 309 308 307 308 308 307 311 317 318 315 314 313 309 307 306 306 305 306 306 305 304 302 302 303 304 304 304 305 305 305 305 305 306 306 306 306 306 306 306 307 307 307 307 308 307
332 330 329 329 328 327 326 326 325 324 324 324 324 323 321 320 320 320 319 317 316 316 316 315 315 314 314 314 315 316 315 313 313 314 313 312 312 312 311 311 310 309 308 307 307 307 309 314 317 317 316 314 310 308 306 306 306 306 307 307 305 303 303 303 304 304 304 305 305 305 305 306 306 306 307 307 308 308 308 309 309 308 308 310 310
329 328 327 327 326 325 325 324 324 324 323 322 323 321 319 318 318 317 317 316 315 315 315 315 315 314 314 313 313 315 315 312 311 313 313 312 312 312 312 311 310 309 308 307 307 307 308 310 314 316 316 313 310 308 307 307 307 306 307 307 305 304 304 304 304 304 304 304 304 305 306 307 307 307 308 309 309 309 310 310 310 310 310 311 311
327 327 326 326 325 324 324 323 323 323 322 322 321 319 317 316 317 316 315 315 315 315 314 314 314 314 313 313 312 313 313 311 310 312 311 310 311 312 311 311 310 309 308 308 307 308 308 308 310 311 311 310 308 308 308 307 307 306 307 307 305 304 304 304 304 304 304 304 304 305 306 307 308 308 308 308 308 309 309 309 310 310 311 312 312
325 325 325 325 324 323 322 322 322 321 321 322 320 318 316 315 316 316 315 315 315 315 314 313 313 313 313 312 311 311 311 310 310 310 310 309 310 311 311 311 310 308 308 307 308 308 308 308 308 309 309 309 308 308 308 308 307 307 307 307 305 304 305 304 304 304 304 304 305 306 307 308 308 307 307 307 307 307 308 308 309 310 311 312 313
323 323 324 324 322 322 321 321 321 320 320 320 319 317 316 315 316 316 315 315 315 314 313 313 312 312 312 311 310 310 310 310 309 309 309 308 308 309 311 310 309 308 308 308 307 308 308 308 308 308 308 308 308 308 308 308 307 307 307 306 305 304 305 305 305 305 305 305 306 307 307 307 307 306 306 307 307 307 307 308 308 308 309 311 312
323 322 323 322 321 321 320 319 319 319 319 318 318 317 316 315 316 315 315 315 314 313 313 312 312 312 311 310 310 310 309 310 310 309 307 306 306 307 309 310 309 308 308 308 307 308 308 308 308 308 308 308 308 308 308 307 307 307 307 306 305 305 305 305 305 305 306 306 306 307 307 307 306 306 306 306 307 307 307 307 307 308 309 310 310
321 321 321 321 321 320 319 319 319 318 318 318 318 317 316 316 316 315 316 315 314 314 313 311 311 311 311 310 310 309 308 309 308 307 306 305 305 306 308 309 309 308 308 308 308 308 308 308 308 307 308 307 307 308 308 308 307 307 306 305 305 305 305 305 305 305 305 306 307 307 307 307 306 306 306 306 306 306 306 307 307 307 308 308 308
321 320 320 320 320 319 319 319 319 318 318 318 317 316 316 316 316 315 316 315 314 314 313 311 310 310 310 309 308 308 308 307 306 306 305 305 305 305 306 308 308 308 308 308 307 307 307 307 307 307 307 307 306 307 307 307 307 308 307 305 305 305 305 305 305 305 305 305 307 307 306 306 305 305 305 305 305 305 306 306 307 307 307 308 307
320 320 320 320 319 319 319 319 318 318 317 317 317 316 316 316 315 315 315 315 314 312 311 310 309 309 309 308 308 307 307 307 306 306 305 305 305 306 306 307 306 307 307 306 305 305 305 305 306 305 306 306 306 306 306 306 307 307 306 305 305 305 305 304 304 304 305 306 306 306 305 305 304 304 304 304 304 305 305 306 306 306 307 307 307
319 320 320 320 319 319 319 319 318 317 316 317 317 317 316 316 316 315 315 314 313 311 310 309 309 309 308 308 307 307 307 307 306 305 305 305 305 306 306 305 304 304 304 304 304 304 304 305 305 305 305 305 305 305 305 305 305 305 304 304 304 304 304 304 304 305 305 306 306 305 304 304 304 303 303 303 303 304 305 305 305 306 306 306 306
319 320 320 319 319 319 319 319 318 316 316 317 318 317 316 316 315 314 313 312 311 310 309 309 309 308 308 307 307 307 307 306 306 305 305 305 305 305 305 305 304 304 304 304 304 304 304 305 305 303 303 303 303 303 303 303 302 303 303 304 304 304 304 304 304 305 305 305 305 304 303 303 303 303 302 302 303 304 304 305 305 305 305 305 304
319 320 319 319 319 319 319 319 318 317 316 317 317 317 316 315 314 313 312 311 310 309 309 309 309 308 307 307 307 306 306 306 305 305 305 305 305 305 304 303 303 304 304 304 303 303 304 305 303 302 301 301 301 302 301 301 302 303 303 303 303 304 304 304 304 305 304 304 304 303 303 303 303 303 302 302 302 303 304 304 304 304 304 304 303
Wind_Speed
9 16 20 21 21 20 19 17 16 14 13 12 12 11 11 11 10 9 7 6 4 3 2 1 2 2 1 2 2 1 1 1 2 4 6 6 5 6 11 11 6 7 9 8 11 13 13 12 13 13 12 13 15 16 15 13 13 13 13 14 15 17 19 18 12 8 9 8 6 8 9 8 8 6 5 5 6 6 5 5 4 5 5 4 3
8 11 16 19 20 20 20 18 17 15 14 14 12 11 12 11 11 9 8 7 5 3 3 2 1 1 1 1 1 2 1 1 2 4 5 6 5 5 9 9 6 6 8 8 9 12 12 12 13 13 12 11 12 14 14 12 12 12 12 13 16 18 20 21 18 11 8 5 3 5 6 7 6 5 4 3 4 5 5 5 4 4 4 4 4
7 8 11 16 19 20 20 19 17 15 15 14 12 12 12 12 11 9 8 7 5 4 4 2 2 2 1 1 1 1 0 1 2 3 3 4 6 5 6 7 6 5 6 8 8 9 10 10 10 11 11 11 11 12 13 12 11 12 13 13 14 15 17 21 22 17 11 5 3 3 2 2 3 4 3 2 2 2 3 3 2 3 4 4 5
8 8 9 13 16 18 19 20 18 16 15 14 13 12 12 11 11 9 8 6 6 6 4 3 2 2 1 1 2 1 1 1 1 1 1 2 4 4 4 5 6 4 4 6 8 8 8 8 8 9 10 11 11 13 13 12 11 12 13 14 14 14 14 17 20 21 17 9 3 1 0 2 1 3 3 1 1 1 0 0 1 2 3 4 5
10 9 8 10 14 17 19 20 18 18 17 15 14 13 11 11 10 9 7 6 6 6 5 4 4 3 2 1 0 0 1 2 2 2 1 1 3 4 4 4 4 5 3 3 6 8 7 7 7 8 9 10 11 12 14 13 12 11 12 14 15 14 12 13 15 18 20 16 8 2 1 2 1 3 2 1 1 2 3 2 1 2 3 3 4
10 10 9 11 14 15 17 18 18 19 18 16 14 13 12 11 10 8 8 7 6 6 5 5 4 4 3 2 1 1 1 2 2 2 1 2 2 3 4 3 1 3 4 1 3 6 6 6 7 7 8 9 10 11 13 14 13 13 13 12 13 13 11 13 14 13 16 18 15 9 5 3 1 2 1 1 2 1 3 4 3 3 4 3 4
7 9 9 10 13 14 15 17 20 20 18 17 15 13 12 11 10 9 8 7 7 6 6 5 4 4 4 3 2 2 3 2 2 3 2 2 2 2 4 3 1 1 3 2 1 3 4 5 6 6 6 7 9 9 10 13 13 13 14 14 13 12 11 12 13 12 12 14 15 13 12 11 7 4 2 0 2 1 3 5 3 3 4 6 6
7 7 7 9 13 16 17 20 21 20 18 17 16 14 13 12 10 9 8 7 7 7 7 6 4 4 4 3 3 3 4 4 3 2 2 2 2 3 3 3 2 2 2 1 0 0 2 3 4 5 5 5 7 8 8 10 10 9 10 12 12 11 10 10 10 11 12 12 12 11 12 12 12 11 7 3 2 1 5 6 5 7 4 5 8
7 7 7 10 15 19 21 22 21 19 18 18 17 14 13 12 10 9 9 7 7 7 7 6 4 4 4 4 4 4 4 3 2 3 3 3 3 3 3 3 3 3 2 1 1 1 1 1 2 4 4 3 4 5 7 9 8 6 6 8 9 9 8 8 8 9 11 11 12 11 11 10 10 11 11 8 5 3 3 4 5 8 6 2 4
6 7 8 12 18 21 21 21 21 19 18 18 16 14 13 12 11 10 9 8 7 7 6 6 5 5 4 5 5 4 4 4 3 4 5 5 5 4 4 3 3 3 2 2 2 2 2 3 2 2 3 3 2 2 5 7 6 5 5 6 6 6 6 7 7 8 9 9 10 12 11 9 8 7 9 9 6 3 2 3 5 6 5 5 6
6 5 6 9 14 18 19 20 20 19 18 18 16 14 14 13 12 11 9 8 7 7 7 6 6 6 5 6 6 5 5 4 5 5 6 7 7 6 5 4 4 3 2 1 2 3 4 4 3 2 1 2 1 1 3 4 4 4 4 4 4 4 4 4 5 6 7 7 7 11 10 7 5 4 4 6 6 3 2 3 5 6 6 8 10
6 5 5 7 9 12 17 19 19 19 20 19 17 16 15 14 13 11 10 10 8 8 8 7 7 7 7 7 7 6 5 4 5 5 5 6 6 6 5 6 5 5 4 3 3 4 5 5 4 3 2 2 2 1 2 2 2 2 1 2 3 3 1 1 3 4 6 6 5 8 9 5 4 4 4 4 5 4 2 1 5 7 5 7 12
6 6 6 6 7 10 15 18 19 20 21 20 19 18 16 14 14 12 11 10 9 9 8 7 7 7 7 6 6 5 4 4 4 4 4 4 4 4 5 6 7 7 7 6 5 5 6 6 6 5 5 4 3 3 1 1 2 2 2 0 1 2 0 2 1 1 3 5 4 4 5 3 3 5 5 3 3 4 3 2 4 6 4 6 10
7 6 7 6 7 12 15 18 19 20 22 21 19 18 16 15 14 13 11 10 9 9 9 7 7 7 6 5 5 4 4 4 4 4 3 4 5 5 6 7 8 8 8 7 6 6 7 7 6 7 8 7 6 6 4 3 3 4 4 2 1 2 2 3 3 3 3 4 4 3 2 2 3 4 4 4 4 5 4 1 2 5 4 4 6
6 6 6 7 10 14 16 18 18 18 20 21 20 18 16 15 15 13 12 11 9 9 9 8 7 6 6 5 4 4 4 4 4 4 4 5 5 5 5 6 8 8 8 7 7 7 7 8 7 7 8 8 9 9 8 6 5 6 6 6 4 4 4 5 6 6 6 6 5 4 3 3 4 4 4 4 6 7 7 5 1 3 3 4 4
6 6 6 7 11 15 16 17 16 15 16 17 19 19 17 15 14 13 12 11 10 8 7 7 7 6 6 6 5 5 5 5 5 5 5 5 5 5 5 5 6 7 7 7 7 7 8 8 8 9 8 9 10 11 11 10 9 9 8 9 8 6 6 7 7 8 8 8 8 7 6 5 5 5 6 6 7 8 8 7 3 1 1 2 3
7 6 6 7 10 14 16 17 16 15 14 13 14 17 17 15 13 13 12 12 11 9 7 7 7 7 7 7 6 5 6 6 7 6 6 6 6 6 6 7 6 6 6 6 7 8 8 9 9 9 9 9 10 11 13 13 12 12 11 11 10 8 8 9 9 10 10 9 9 10 11 10 8 7 8 8 8 9 9 8 7 4 1 1 0
7 7 6 7 10 13 15 16 17 17 15 12 12 14 14 13 12 11 11 13 13 11 10 8 8 9 8 7 7 6 5 5 5 6 6 7 7 6 7 7 7 7 7 7 8 9 10 10 11 11 10 11 11 12 14 15 15 16 15 15 14 11 10 11 11 12 12 12 12 12 13 14 12 10 11 11 9 9 10 9 9 8 7 4 3
7 6 6 7 11 14 15 15 16 16 15 13 12 12 12 12 12 11 10 11 11 11 11 10 10 9 9 8 7 6 6 5 5 5 6 7 7 6 7 7 7 7 8 8 9 11 12 13 13 13 13 13 13 13 14 15 17 18 18 18 18 16 15 14 14 14 14 15 15 15 14 16 15 13 13 13 12 10 11 11 10 9 11 10 7
7 7 6 7 11 16 17 17 17 16 15 14 13 13 13 12 12 13 11 10 11 11 11 11 10 9 8 8 7 7 6 5 5 6 7 8 8 9 9 9 8 8 9 9 10 12 13 14 15 16 16 16 16 16 16 17 18 19 20 20 20 19 19 19 17 16 16 16 18 19 18 18 17 17 16 15 14 13 13 13 13 12 13 13 12
8 8 7 7 12 16 19 19 18 18 17 15 15 15 13 13 13 13 13 12 12 12 11 11 10 10 9 9 8 7 6 6 6 7 8 9 9 10 10 10 10 10 11 11 12 13 14 15 16 17 18 19 19 19 19 19 20 21 22 22 21 21 22 22 21 20 19 19 19 20 21 21 20 19 19 18 17 16 16 16 16 15 16 16 15
8 9 7 8 12 16 19 20 19 19 19 18 18 16 15 15 15 14 14 14 14 13 13 12 11 11 11 9 8 8 8 8 8 8 9 10 10 10 10 11 11 11 11 12 13 14 15 16 17 18 19 19 20 20 20 20 22 23 24 24 24 24 24 24 24 24 23 22 21 21 20 20 21 22 22 22 21 19 18 19 19 18 19 19 18
9 9 8 9 14 17 19 19 19 21 21 21 21 19 17 18 17 16 16 16 16 15 14 13 13 12 11 11 10 10 9 9 10 10 10 10 10 11 11 12 12 12 12 13 14 15 16 17 18 18 19 19 19 20 20 21 22 23 24 26 26 27 27 26 26 26 25 24 24 24 22 20 20 23 23 23 24 23 21 21 22 22 21 20 20
9 8 7 10 14 16 16 17 19 21 22 23 23 21 19 19 19 19 18 17 16 16 15 15 15 14 13 12 12 11 11 11 11 11 11 11 12 12 12 13 13 13 13 14 14 15 16 17 18 19 19 20 21 22 22 22 23 23 24 25 27 28 29 28 28 27 26 25 26 26 26 24 22 23 25 25 25 25 24 23 23 24 24 22 21
8 8 8 9 11 12 14 17 19 21 23 25 24 23 21 20 21 21 20 17 16 15 15 15 15 15 14 14 13 13 12 12 12 12 11 11 11 11 12 13 14 15 16 17 18 18 19 20 21 22 22 22 22 23 23 23 24 25 26 26 27 27 29 30 30 29 28 26 26 27 28 27 26 26 25 26 26 26 26 26 26 26 26 25 24
10 9 9 9 9 10 14 17 20 22 24 25 25 24 22 21 21 21 20 19 17 16 15 14 14 14 14 14 14 13 13 13 13 13 12 13 13 14 14 15 15 15 15 16 17 17 18 19 21 22 23 24 25 25 25 25 25 26 26 26 26 26 27 27 27 27 27 26 26 27 28 28 29 29 29 28 27 26 27 28 29 28 29 28 27
10 10 9 10 9 10 14 17 20 22 24 25 26 25 22 22 21 20 20 20 19 18 16 14 13 12 13 14 14 14 14 13 12 11 10 10 9 9 9 9 10 10 11 12 13 14 15 15 16 16 17 17 18 19 19 19 19 20 20 20 22 22 21 21 21 22 24 26 25 23 24 24 26 28 29 28 27 28 27 28 29 30 31 31 29
9 10 10 10 10 9 11 16 18 19 22 24 26 25 23 22 22 20 20 20 20 20 17 15 14 14 13 12 11 10 8 6 3 3 6 8 10 11 12 12 13 14 15 15 16 16 16 17 17 17 17 16 16 15 15 15 15 15 14 14 15 15 15 17 18 20 22 24 23 21 21 22 23 23 24 23 23 25 26 27 28 28 30 31 31
10 10 11 11 11 9 11 15 17 18 21 23 25 25 24 23 23 22 21 20 20 20 17 16 15 13 9 5 2 1 4 7 10 12 13 14 14 14 15 15 16 17 17 17 17 19 19 19 19 18 17 16 16 17 17 17 16 15 14 13 11 11 12 14 16 17 19 20 21 20 20 20 21 20 21 21 20 19 21 23 23 23 23 25 27
12 11 11 11 11 10 13 16 17 18 21 24 25 26 25 25 25 24 23 22 21 20 17 14 10 6 2 5 9 12 14 15 15 15 16 15 15 15 16 17 18 18 18 18 19 20 21 21 20 19 17 17 18 19 19 18 18 17 16 14 12 11 12 13 14 16 17 19 19 20 20 19 19 19 19 19 19 18 18 18 18 20 21 20 20
12 12 11 10 10 10 12 15 18 21 23 25 26 26 25 26 25 23 24 24 21 17 12 8 7 10 13 16 17 17 17 17 17 17 17 16 15 16 18 18 18 18 17 18 19 19 20 20 19 17 17 18 19 19 19 19 19 18 17 16 15 14 13 13 14 15 16 18 18 18 18 19 19 18 18 19 21 21 21 20 20 20 21 22 21
12 11 11 10 10 9 10 16 21 24 24 24 26 25 23 23 22 20 22 21 17 13 13 16 18 20 20 19 19 18 18 18 17 16 16 15 15 17 18 18 18 18 16 17 18 18 19 19 17 16 17 19 20 20 20 20 20 20 18 17 17 16 16 15 15 15 16 17 18 18 18 18 18 18 19 19 20 21 21 21 20 18 20 22 22
12 12 11 11 11 12 14 19 24 25 24 24 24 22 19 18 17 15 14 15 18 20 23 23 22 21 21 20 19 18 18 18 16 16 15 15 16 17 18 18 18 17 17 18 18 17 18 17 15 16 18 21 22 22 22 22 22 22 21 19 18 17 17 16 16 16 16 16 17 19 19 19 19 19 19 19 19 20 20 20 19 17 19 21 22
11 12 12 11 12 14 16 19 23 24 23 22 21 19 19 20 21 21 22 25 27 27 26 24 22 21 21 19 18 18 18 17 16 16 16 17 17 16 17 17 18 18 19 20 20 19 18 16 15 16 19 21 23 22 23 23 23 23 22 21 20 19 19 19 19 19 18 17 18 19 20 20 19 18 18 18 18 19 20 20 19 18 19 20 21
10 11 11 10 12 14 15 16 17 18 17 18 19 19 22 25 27 29 29 29 28 27 25 24 22 20 19 18 17 17 17 16 16 16 16 16 16 15 16 18 19 20 21 22 21 20 18 16 15 15 18 21 22 22 23 24 24 24 23 22 21 21 21 20 20 21 21 20 20 20 20 20 18 16 16 16 18 20 21 21 21 20 20 20 19
13 14 13 14 16 18 17 15 14 15 18 20 23 25 27 29 30 31 30 29 28 27 25 23 21 20 18 17 17 17 17 16 15 15 16 16 15 15 16 17 18 19 20 22 22 20 17 15 14 15 17 20 22 23 24 25 26 26 25 24 24 23 22 22 21 21 22 22 22 22 22 21 18 16 16 19 22 23 23 22 22 21 21 21 21
11 14 17 19 20 19 19 18 18 20 24 26 27 30 31 30 29 29 29 28 28 26 24 22 20 19 17 16 16 16 16 15 14 14 15 15 14 14 15 15 16 18 20 21 22 21 16 13 14 15 16 20 22 24 25 26 26 26 26 26 26 25 25 25 24 24 23 23 23 23 23 22 21 19 21 24 26 27 27 24 22 22 23 24 25
12 14 14 16 19 21 22 23 24 24 26 29 31 32 32 30 28 28 29 28 27 25 23 21 20 18 17 16 16 16 16 14 13 12 12 12 12 12 13 15 16 18 18 19 20 21 18 13 13 15 15 18 22 24 26 26 25 25 26 27 27 27 27 27 26 26 25 24 24 23 23 23 23 24 25 27 28 30 30 27 24 22 22 25 27
16 20 21 22 24 26 26 27 27 25 26 29 31 32 32 29 27 28 28 26 25 23 21 20 18 16 16 15 14 14 14 14 12 10 9 10 11 11 12 13 15 17 18 17 17 20 18 13 11 12 13 16 20 23 24 24 23 24 26 27 28 28 27 27 27 27 27 27 27 27 26 26 26 27 28 29 29 28 28 26 24 21 21 25 27
16 20 24 26 27 28 27 27 28 27 27 30 32 32 31 28 26 27 27 25 24 22 20 19 17 17 16 13 12 12 11 12 12 9 8 9 10 10 10 10 12 14 16 16 16 17 17 13 9 8 10 13 16 19 21 22 22 22 23 26 27 27 26 26 26 26 27 29 30 30 29 28 28 28 28 28 27 26 26 26 25 22 21 23 25
19 22 25 26 25 27 27 26 28 29 29 31 32 31 29 27 26 26 25 24 22 20 18 17 16 16 14 12 11 11 10 11 11 10 10 10 9 8 7 8 10 12 14 15 14 14 15 13 9 7 7 10 12 15 17 18 19 19 21 24 27 26 25 25 26 26 27 28 30 31 30 28 27 28 28 28 27 26 27 27 27 25 24 25 25
20 23 26 27 26 26 27 26 27 29 29 29 30 30 28 27 26 25 24 23 20 17 16 16 16 15 14 12 11 11 10 10 11 12 13 11 8 6 5 6 8 10 12 13 12 11 11 11 9 6 6 8 11 12 13 15 16 17 19 23 26 26 25 25 26 27 28 29 30 30 28 27 27 27 27 28 27 27 27 28 27 26 25 25 25
19 21 26 29 27 25 26 25 26 27 27 26 27 28 26 25 25 23 22 20 17 15 15 16 16 15 13 11 11 11 9 8 9 11 11 9 7 6 4 4 7 10 11 10 9 8 8 8 7 5 5 7 9 10 11 11 13 15 19 23 25 26 26 27 27 27 29 29 28 27 26 26 26 26 27 28 29 29 30 30 30 28 26 25 25
20 21 26 30 28 24 24 24 24 25 24 24 26 26 25 24 23 21 18 15 14 16 17 15 14 14 13 11 10 8 6 5 6 7 9 10 10 7 4 4 6 9 9 8 7 5 5 6 7 7 7 8 9 9 9 9 11 14 19 23 25 26 28 30 30 29 28 27 26 25 25 25 25 26 27 27 28 30 31 31 31 30 28 26 25
21 22 26 29 28 26 25 23 23 24 23 21 21 23 24 24 21 18 16 16 17 18 17 14 13 13 12 10 8 7 7 6 6 8 12 15 15 12 6 4 4 7 8 8 8 6 5 6 7 9 11 11 11 11 9 8 10 14 20 24 25 27 30 32 31 28 25 24 24 23 23 23 24 26 26 26 28 29 30 30 30 31 30 28 27
22 23 26 28 28 27 25 23 22 22 20 17 16 19 23 24 21 18 17 17 18 17 15 13 14 13 10 10 10 11 13 13 12 14 15 16 15 15 10 4 1 2 6 10 12 11 10 10 11 13 15 16 17 16 12 10 11 15 21 24 26 28 31 30 28 24 21 22 22 22 22 23 24 25 26 26 27 27 27 28 29 30 30 30 30
23 25 27 28 26 24 23 22 21 17 15 15 17 20 23 23 19 17 16 16 17 17 15 13 13 13 12 12 13 14 15 16 15 15 16 15 14 14 14 11 6 5 8 13 16 17 16 15 16 17 17 18 19 18 16 14 13 15 20 25 27 28 28 27 25 22 21 21 21 21 22 23 24 24 25 27 27 28 28 29 29 29 29 29 29
23 26 27 26 24 23 22 21 18 15 15 18 20 21 23 21 18 17 16 15 16 18 17 14 14 13 13 14 15 15 15 15 15 14 15 15 14 14 16 17 14 12 12 14 17 17 16 15 14 15 16 18 19 19 17 15 14 16 21 26 26 25 25 25 24 22 20 20 20 20 22 24 26 27 28 28 29 29 28 28 28 28 28 27 28
23 26 27 26 25 24 23 20 17 17 19 20 21 22 22 20 18 17 16 16 17 18 17 15 14 14 14 14 14 13 13 14 13 13 14 14 13 15 15 15 16 17 17 18 19 18 16 15 15 17 19 19 20 20 19 17 16 18 21 23 22 21 23 23 21 18 18 18 19 22 25 27 28 29 29 29 29 29 28 27 26 27 27 27 28
23 24 24 26 27 25 22 20 20 22 22 22 22 22 21 19 20 19 17 18 20 20 17 14 13 13 14 14 13 12 12 11 11 11 12 12 12 14 15 15 17 19 19 19 20 19 17 17 19 21 21 20 19 19 19 19 18 18 19 20 20 20 21 20 17 16 17 18 20 22 24 25 25 25 25 26 27 27 27 27 25 25 25 26 27
23 23 23 24 25 23 21 21 23 23 22 21 22 23 22 21 21 19 18 20 21 21 18 14 12 12 14 13 13 12 11 10 10 10 11 11 11 13 15 16 17 18 17 18 20 20 18 18 20 21 21 19 18 18 18 18 17 17 19 21 20 19 18 17 15 14 16 18 19 20 21 21 21 22 22 23 24 24 24 25 25 25 24 24 25
Wind_Direction
161 161 167 170 173 173 171 172 170 171 176 180 181 187 194 197 199 196 193 201 212 208 192 171 183 175 78 27 31 58 92 53 19 358 4 23 57 50 27 36 69 67 59 68 63 55 53 59 60 55 53 57 57 53 49 42 40 49 59 64 62 55 46 39 38 60 78 74 78 83 80 84 93 98 103 104 90 76 77 80 73 72 73 67 62
144 156 167 170 173 172 172 173 172 175 179 183 185 189 197 202 204 201 193 199 211 208 194 180 179 170 99 26 53 72 104 47 4 0 14 34 48 42 29 39 67 77 66 65 63 60 62 65 62 58 58 56 54 50 45 40 38 43 54 65 67 60 51 43 41 52 60 50 67 71 62 68 78 83 94 111 93 78 83 84 74 63 57 47 38
155 166 172 173 173 171 173 175 176 180 182 185 188 190 197 204 207 203 192 198 204 203 207 198 190 192 204 332 347 355 339 1 3 7 20 31 33 35 39 40 53 83 78 64 61 64 66 69 64 57 55 55 53 46 41 39 41 45 51 60 67 65 57 48 44 45 45 55 80 57 37 54 40 27 39 98 111 87 85 80 65 52 47 39 32
169 176 178 179 177 174 176 178 180 183 183 186 188 189 198 203 203 198 190 201 205 202 209 200 196 211 235 313 330 311 280 298 316 332 346 13 19 24 48 47 38 54 86 74 66 67 65 67 74 67 58 52 47 46 48 46 45 52 55 56 60 59 54 50 48 46 45 50 71 46 43 76 25 328 346 349 200 214 203 76 12 16 32 36 26
169 178 184 183 181 181 183 182 183 183 183 186 188 191 199 200 198 197 197 206 208 204 205 207 213 217 226 255 343 353 247 259 259 262 281 335 1 14 40 51 35 28 48 84 70 68 65 62 77 82 66 51 49 58 62 56 54 62 61 56 55 52 48 49 49 48 47 47 54 78 53 62 241 287 345 338 261 214 225 243 257 302 335 4 11
168 175 183 185 184 184 186 186 184 183 185 188 191 195 199 201 202 205 204 207 208 204 204 211 218 219 229 244 269 327 302 258 277 310 313 329 346 0 20 34 54 23 20 52 69 63 59 56 68 79 71 61 65 71 67 61 66 72 66 58 56 52 47 46 42 46 52 50 52 65 75 78 259 295 25 357 345 219 238 276 285 286 286 295 333
173 172 176 181 178 176 183 187 185 186 188 189 191 196 199 203 207 207 205 206 209 206 208 217 221 222 231 250 277 293 296 294 317 336 316 317 332 332 358 23 70 17 20 36 74 51 42 49 58 62 69 73 76 77 69 66 68 69 66 62 60 57 52 48 39 37 44 44 47 58 66 64 57 49 82 70 358 358 354 5 5 336 287 266 279
176 170 170 175 174 175 182 187 188 189 190 189 191 194 199 203 203 205 205 206 208 204 212 224 226 220 225 251 275 279 297 309 322 330 302 297 323 324 339 14 21 1 10 10 287 5 15 36 51 54 67 83 83 78 71 71 69 62 63 63 59 56 53 49 40 34 32 30 35 44 49 50 55 59 60 74 107 357 355 15 18 8 350 260 264
174 171 171 171 176 181 184 185 187 190 190 190 190 191 196 199 199 202 204 204 203 200 213 230 233 229 233 253 267 277 296 302 303 320 311 300 306 301 308 341 3 358 328 293 218 214 306 341 29 51 68 91 99 83 73 79 75 61 64 70 64 57 50 43 39 37 34 32 33 33 31 31 41 50 48 52 77 76 357 326 340 359 4 330 293
171 173 171 172 181 186 184 182 184 186 189 188 186 187 191 194 198 202 205 205 203 206 221 235 239 243 248 256 267 281 291 285 282 298 296 292 292 282 284 303 336 351 318 243 199 217 265 279 288 1 70 99 104 92 87 84 83 84 83 78 73 64 54 42 35 29 23 28 35 35 31 26 28 34 36 40 51 68 40 300 315 343 329 317 342
166 169 162 162 176 183 178 177 180 181 184 184 184 188 190 192 198 202 205 206 208 218 229 238 243 247 257 264 269 279 288 283 283 295 290 284 287 284 282 289 306 326 322 269 228 236 256 263 264 278 126 139 128 109 116 97 89 104 86 60 57 56 55 42 24 11 3 6 23 31 32 35 45 37 30 46 52 56 40 307 312 330 308 293 326
155 156 143 133 147 165 169 172 176 176 179 183 185 189 190 193 198 201 205 208 214 226 230 238 242 244 256 264 265 270 276 279 286 300 299 289 290 285 277 282 291 298 299 295 272 254 255 254 241 232 234 218 215 201 147 132 117 129 99 49 37 29 51 14 355 2 7 3 1 18 24 33 52 29 8 43 54 53 59 326 318 338 323 297 324
151 149 145 138 139 150 160 167 172 175 181 186 188 190 192 195 200 203 207 212 219 226 227 232 235 237 248 254 258 260 262 268 279 293 294 290 294 286 277 279 284 290 293 297 299 286 270 262 251 249 261 258 236 237 219 167 173 195 213 200 16 3 257 224 284 326 357 359 347 357 14 12 5 358 347 352 13 14 26 19 334 342 321 292 324
151 152 150 151 153 153 160 168 173 181 187 189 189 190 192 196 200 205 209 214 221 225 223 224 227 233 240 242 242 244 251 258 262 269 268 271 283 288 286 280 279 284 289 296 303 295 278 267 263 262 262 260 256 255 253 244 230 225 231 250 286 301 273 241 235 240 260 304 324 326 318 310 309 316 321 310 301 311 318 315 348 343 321 294 319
151 157 157 156 159 159 163 171 176 182 187 190 192 191 191 197 200 203 206 211 218 221 219 220 225 231 234 236 236 235 244 254 259 261 257 263 276 286 291 285 281 283 285 289 291 286 280 269 263 265 262 259 261 261 257 254 253 249 248 254 259 262 266 259 247 243 244 258 280 296 291 287 285 282 287 281 278 292 299 288 1 27 344 322 323
153 159 161 160 162 161 165 171 175 176 175 183 192 191 191 197 201 203 204 207 211 207 204 211 219 224 229 235 236 237 246 255 260 258 255 262 270 284 300 297 288 288 288 285 283 283 284 276 268 268 266 263 260 259 259 256 258 262 257 253 253 251 253 259 255 248 246 249 254 267 274 272 272 274 276 272 270 280 290 291 292 91 66 335 331
162 165 164 162 163 165 168 170 174 176 172 175 185 188 192 198 205 209 209 210 211 205 197 199 207 214 223 229 232 238 247 255 263 266 266 263 264 279 296 295 289 289 287 282 280 281 282 279 274 273 271 267 260 256 258 257 257 259 258 253 255 255 254 259 260 255 255 254 255 262 265 263 265 268 268 267 268 275 284 291 290 275 216 150 276
162 161 158 160 162 166 170 172 178 182 180 178 182 188 193 197 201 203 206 210 212 210 209 209 212 216 218 221 227 235 246 261 272 274 268 259 264 283 291 291 292 289 283 279 276 275 275 274 273 274 273 269 262 259 259 260 258 257 257 257 257 256 256 259 261 262 263 261 261 265 264 262 263 264 264 262 261 271 279 284 287 274 257 226 191
159 155 155 160 161 164 167 169 174 179 179 177 179 187 188 190 196 198 202 209 211 212 215 215 214 215 220 227 234 240 253 270 275 268 261 259 269 284 287 291 296 291 284 281 278 277 276 275 273 274 274 272 269 265 263 262 261 260 259 259 259 256 254 257 257 259 264 265 265 266 262 260 263 265 263 258 256 263 270 273 275 268 263 259 236
164 160 162 164 163 167 168 168 172 177 180 180 183 191 190 191 201 205 207 210 210 210 212 213 211 211 217 223 229 239 250 260 263 264 267 272 277 280 284 292 296 293 291 288 286 285 283 281 279 277 276 276 274 272 269 265 262 262 261 260 261 257 253 256 257 256 260 263 266 268 266 263 262 263 261 255 252 257 263 264 264 262 261 262 256
165 163 165 168 171 173 174 176 179 183 187 190 193 197 200 201 203 205 209 209 207 208 209 213 214 214 217 220 226 237 245 252 258 263 270 275 275 275 281 289 289 289 290 289 288 290 290 289 287 285 282 280 279 277 275 271 266 265 263 261 261 258 255 256 257 257 258 260 263 266 269 268 263 260 260 257 252 255 259 258 257 257 256 256 256
169 169 167 171 178 179 179 182 185 189 193 196 197 200 204 206 205 207 212 213 213 215 216 218 218 218 223 228 234 240 243 248 252 259 265 269 272 276 281 283 282 286 288 286 287 288 290 289 288 288 287 285 284 283 281 277 273 270 267 263 260 257 256 256 255 256 258 260 261 262 265 267 264 261 260 258 256 255 256 256 254 253 252 253 252
171 169 168 176 182 184 185 186 190 194 197 198 200 204 207 209 209 212 216 220 222 224 225 226 226 227 230 232 237 241 244 248 252 258 264 269 274 279 281 279 281 287 289 287 289 289 288 287 286 286 285 283 284 284 283 279 277 276 273 268 264 259 256 255 255 256 258 260 260 260 261 262 261 260 259 258 257 256 255 255 256 254 251 251 250
167 166 171 178 182 187 188 189 193 197 200 201 204 209 212 213 215 217 220 224 226 229 233 232 232 234 236 237 240 242 243 248 255 261 266 272 277 280 282 282 284 289 291 293 294 293 290 288 285 284 283 282 281 281 281 279 278 278 277 274 271 265 260 257 255 256 258 259 259 259 260 261 261 260 260 259 257 256 256 255 255 255 250 249 249
164 164 171 178 183 190 193 193 195 197 201 204 208 213 216 218 220 221 224 226 227 228 230 230 232 235 236 236 238 240 244 250 257 263 269 274 277 280 284 286 288 291 294 296 296 296 294 292 289 287 285 283 283 282 280 279 280 281 279 278 275 271 267 264 260 258 258 260 261 263 264 264 262 260 261 262 259 257 257 255 255 253 249 248 250
167 166 173 183 186 192 196 197 198 200 202 206 210 214 217 221 225 226 225 221 217 217 219 221 225 229 233 235 237 238 242 248 257 265 273 280 285 289 293 297 301 303 305 308 310 311 311 309 307 303 297 293 291 289 286 285 285 284 284 285 282 277 273 269 265 264 264 264 265 267 270 270 268 265 262 263 263 260 257 255 254 253 250 249 248
168 167 175 185 190 197 201 201 202 204 203 206 211 215 218 223 226 225 220 213 208 209 211 213 215 219 226 229 233 238 243 255 269 280 291 303 314 323 333 344 350 353 355 355 354 353 351 350 348 343 337 329 321 316 311 307 304 301 298 297 293 287 279 270 267 271 273 273 272 273 274 277 280 277 270 266 268 267 263 259 256 254 253 250 248
171 173 178 188 195 202 206 205 205 205 205 207 212 216 219 222 222 218 214 212 211 210 210 209 211 215 222 229 240 251 260 275 307 16 41 43 44 42 39 35 30 27 26 24 22 17 12 10 10 11 15 15 10 3 353 344 338 333 328 319 308 296 284 277 279 283 281 277 276 279 278 277 280 283 279 275 275 276 273 268 263 260 256 251 248
179 182 186 192 197 200 207 210 208 204 204 207 211 215 220 223 222 218 217 218 218 216 211 209 214 222 232 246 251 138 102 94 88 78 68 59 51 46 41 35 33 34 35 34 31 26 20 17 15 17 21 22 20 16 10 4 360 357 355 349 334 314 298 293 293 292 285 278 275 277 280 281 282 285 287 283 281 281 277 272 271 270 267 261 256
187 193 195 197 200 198 202 209 211 207 206 208 212 214 217 222 224 224 223 222 221 219 214 212 219 222 172 117 110 106 100 91 80 69 60 54 49 44 39 37 37 38 37 34 29 27 25 22 21 23 25 24 23 22 19 18 18 17 17 16 7 347 329 316 310 307 300 293 288 285 287 293 293 293 296 293 289 289 288 282 278 273 271 272 270
193 195 197 200 204 202 199 203 210 213 210 209 212 215 218 223 226 228 229 225 221 215 204 184 147 120 116 113 106 97 88 79 70 64 61 56 50 43 39 38 35 32 33 32 28 27 25 21 23 29 31 31 32 30 28 28 30 32 33 33 28 16 4 352 341 334 326 319 316 314 313 313 309 307 306 301 297 296 297 294 288 280 275 273 270
195 196 198 200 204 204 196 194 202 210 210 207 211 217 220 221 221 227 230 221 204 176 146 129 119 113 109 102 96 88 81 75 69 66 64 58 52 46 40 35 29 26 30 32 31 31 24 19 25 36 41 43 43 40 39 38 39 40 40 39 38 32 25 19 10 1 352 345 343 343 342 340 336 332 326 318 313 312 312 308 300 291 283 276 270
194 195 196 198 202 203 194 187 191 199 202 199 200 199 192 187 187 193 194 176 154 139 128 120 113 107 102 97 93 88 82 77 71 66 61 56 52 48 43 38 34 33 36 35 35 33 25 24 38 48 49 51 50 46 45 44 42 41 40 40 40 37 33 29 22 16 9 2 358 355 352 350 349 348 344 340 335 331 330 326 317 307 295 288 283
197 198 199 201 202 201 197 191 189 192 191 184 178 167 153 148 147 144 141 136 131 126 121 115 110 105 101 97 94 89 84 79 70 62 57 54 52 49 47 48 47 44 42 40 39 37 34 41 55 58 56 56 53 48 44 42 40 38 37 37 37 36 35 32 28 24 21 17 13 9 3 360 359 359 357 355 352 347 343 339 335 329 319 311 304
200 203 205 205 198 192 195 198 194 188 178 165 156 146 139 136 135 132 128 126 123 119 116 113 109 104 99 97 94 89 83 74 66 62 60 57 55 54 56 58 55 50 47 47 47 46 49 56 57 56 61 60 53 47 42 38 36 33 31 31 30 28 28 28 26 24 22 21 19 14 10 8 8 8 8 5 359 355 350 346 342 337 331 326 318
196 200 201 201 198 191 185 184 181 171 159 148 143 140 135 130 129 128 124 122 120 116 114 111 106 101 97 93 90 86 79 72 67 67 65 62 63 65 64 61 56 53 52 52 51 50 53 58 56 57 63 61 52 45 39 34 31 28 26 26 25 23 21 21 21 19 18 18 18 13 9 8 7 5 1 356 351 348 345 342 337 332 328 325 319
183 191 196 195 193 184 171 160 152 148 146 141 137 136 130 123 122 122 120 119 116 113 112 108 102 97 91 87 86 84 78 73 73 75 73 70 72 71 64 58 54 53 52 52 51 50 52 60 64 64 64 59 50 41 34 30 28 28 27 25 22 19 17 15 14 14 13 13 14 11 6 3 360 353 346 343 342 341 339 336 330 324 321 317 314
142 151 162 166 165 159 152 147 139 135 136 136 133 131 124 118 117 118 117 115 112 110 109 104 98 92 87 86 87 84 78 75 76 79 79 80 82 77 66 60 56 53 52 49 47 49 54 65 71 70 65 57 48 38 30 28 29 29 29 25 20 16 14 11 8 7 8 9 9 7 4 360 353 347 343 340 336 334 331 329 325 319 312 306 308
137 137 137 139 142 141 139 138 133 129 131 132 131 127 120 115 115 116 114 111 109 110 107 101 98 92 85 84 86 86 81 75 71 76 86 93 93 84 71 64 58 53 51 46 41 46 57 73 81 73 64 53 42 34 30 28 27 26 25 23 19 14 12 9 6 5 5 5 4 2 360 356 350 346 343 339 335 333 331 328 324 315 302 301 309
131 132 132 133 135 133 130 129 129 129 130 129 127 122 116 114 115 115 114 112 112 111 108 105 101 93 84 83 88 93 89 73 66 76 96 100 99 90 75 66 62 55 51 47 41 44 57 72 81 71 57 44 33 29 28 26 25 23 21 20 18 14 10 7 5 4 2 360 359 357 355 354 351 347 345 343 342 341 339 335 330 319 305 309 318
129 130 128 126 126 126 124 124 127 129 129 127 125 119 115 116 117 116 115 117 116 114 111 108 105 98 94 93 93 98 96 79 73 86 97 97 101 97 76 66 64 56 50 50 46 44 52 64 70 61 44 30 21 19 20 19 18 19 19 18 16 14 9 5 3 2 359 356 354 353 353 354 353 352 354 357 357 355 352 348 342 333 324 323 323
124 126 125 120 117 118 119 122 127 128 128 128 125 119 118 119 117 116 120 121 118 114 111 109 108 107 107 106 100 98 96 86 85 96 97 92 98 102 79 67 69 60 55 55 51 46 48 54 58 51 28 12 7 7 8 8 10 15 18 17 14 12 10 6 2 359 356 354 352 352 354 357 0 5 11 14 14 13 11 8 3 356 347 341 334
122 124 125 122 118 118 121 124 128 130 131 131 126 121 120 119 117 121 125 122 117 116 113 110 111 111 109 108 105 103 99 93 95 100 96 90 99 108 97 79 71 62 54 51 49 46 42 39 36 26 4 351 349 352 356 357 1 11 17 16 13 11 10 6 2 358 354 353 355 356 360 5 12 18 20 21 22 23 22 21 20 19 14 8 359
124 127 128 125 121 121 122 126 130 133 134 134 129 125 123 121 123 129 129 124 123 122 117 114 118 118 111 106 106 102 96 96 99 93 80 75 77 82 104 112 77 59 49 40 34 30 23 18 10 357 345 336 332 336 342 348 356 9 15 13 11 10 7 4 2 359 357 358 0 3 9 16 22 24 23 22 23 24 23 23 24 24 23 21 16
128 130 130 127 126 126 126 128 133 135 135 132 130 129 127 127 132 136 130 129 132 130 123 124 131 129 117 106 99 88 77 80 92 86 72 65 60 57 74 121 92 59 46 28 13 358 347 348 345 342 342 338 332 331 333 339 352 6 12 10 8 7 4 1 0 1 4 7 9 13 20 24 25 24 24 24 23 23 24 25 25 25 26 26 24
130 131 131 129 129 130 129 129 132 134 133 132 134 138 136 135 138 139 136 138 139 134 131 134 135 128 118 110 101 91 83 84 90 86 72 61 55 52 55 78 132 33 22 16 10 1 350 342 336 335 338 338 337 340 346 350 353 1 6 7 5 3 1 0 2 6 12 15 19 26 30 27 25 25 26 25 22 20 21 22 23 24 24 23 22
138 138 137 135 134 133 133 132 133 135 138 139 140 142 142 140 140 142 143 143 142 141 143 141 129 116 113 110 101 92 88 89 90 83 66 56 54 49 43 42 34 360 358 8 11 8 4 357 348 345 347 348 350 352 355 353 351 355 0 1 0 359 360 1 4 10 17 23 29 34 32 28 26 24 21 20 19 16 15 15 15 17 20 19 18
143 144 143 141 140 140 139 138 136 140 147 145 140 141 143 143 143 146 147 147 148 149 145 135 121 112 109 107 98 89 88 89 88 75 57 51 51 45 44 49 50 41 29 25 24 23 21 14 8 8 13 14 14 11 7 359 352 352 356 359 0 1 3 4 5 10 20 29 31 29 25 22 21 19 16 15 14 13 13 13 11 13 16 17 16
152 153 153 152 149 147 145 143 144 148 148 145 143 145 149 149 149 152 154 153 151 146 137 129 123 116 113 109 100 91 87 86 81 65 53 52 49 43 46 55 58 55 50 44 41 41 41 40 43 42 37 33 30 26 22 16 6 359 359 2 6 5 4 7 13 22 32 34 28 24 22 20 18 17 14 12 9 8 9 10 10 12 14 13 13
160 161 160 157 153 151 149 149 153 156 153 150 150 152 155 157 157 156 153 148 144 139 137 137 132 124 122 118 107 98 90 82 71 55 49 51 47 45 52 60 60 57 55 51 48 48 50 57 59 53 44 39 34 28 23 18 10 4 3 5 6 4 3 10 22 32 36 34 30 26 24 22 21 19 15 10 7 4 3 2 4 7 10 10 8
167 165 163 160 158 157 157 157 159 162 160 157 157 159 161 161 160 158 153 146 142 140 140 140 136 129 126 119 107 100 92 80 69 56 47 44 48 58 65 64 57 56 58 57 53 52 57 64 59 48 41 37 31 25 19 13 9 6 4 3 2 2 6 15 23 26 29 33 32 28 25 23 22 19 14 8 5 2 359 357 356 358 2 4 3